QPF
0.00 0.00 0.00 0.00 0.00 0.00 0.00 0.00 0.00 0.00 0.00 0.00 0.00 0.00 0.00 0.00 0.00 0.00 0.00 0.00 0.00 0.00 0.00 0.00 0.00 0.00 0.00 0.00 0.00 0.00 0.00 0.00 0.00 0.00 0.00 0.00 0.00 0.00 0.00 0.00 0.00 0.00 0.00 0.00
0.00 0.00 0.00 0.00 0.00 0.00 0.00 0.00 0.00 0.00 0.00 0.00 0.00 0.00 0.00 0.00 0.00 0.00 0.00 0.00 0.00 0.00 0.00 0.00 0.00 0.00 0.00 0.00 0.00 0.00 0.00 0.00 0.00 0.00 0.00 0.00 0.00 0.00 0.00 0.00 0.00 0.00 0.00 0.00
0.00 0.00 0.00 0.00 0.00 0.00 0.00 0.00 0.00 0.00 0.00 0.00 0.00 0.00 0.00 0.00 0.00 0.00 0.00 0.00 0.00 0.00 0.00 0.00 0.00 0.00 0.00 0.00 0.00 0.00 0.00 0.00 0.00 0.00 0.00 0.00 0.00 0.00 0.00 0.00 0.00 0.00 0.00 0.00
0.00 0.00 0.00 0.00 0.00 0.00 0.00 0.00 0.00 0.00 0.00 0.00 0.00 0.00 0.00 0.00 0.00 0.00 0.00 0.00 0.00 0.00 0.00 0.00 0.00 0.00 0.00 0.00 0.00 0.00 0.00 0.00 0.00 0.00 0.00 0.00 0.00 0.00 0.00 0.00 0.00 0.00 0.00 0.00
0.00 0.00 0.00 0.00 0.00 0.00 0.00 0.00 0.00 0.00 0.00 0.00 0.00 0.00 0.00 0.00 0.00 0.00 0.00 0.00 0.00 0.00 0.00 0.00 0.00 0.00 0.00 0.00 0.00 0.00 0.00 0.00 0.00 0.00 0.00 0.00 0.00 0.00 0.00 0.00 0.00 0.00 0.00 0.00
0.01 0.01 0.01 0.00 0.00 0.00 0.00 0.00 0.00 0.00 0.00 0.00 0.00 0.00 0.00 0.00 0.00 0.00 0.00 0.00 0.00 0.00 0.00 0.00 0.00 0.00 0.00 0.00 0.00 0.00 0.00 0.00 0.00 0.00 0.00 0.00 0.00 0.00 0.00 0.00 0.00 0.00 0.00 0.00
0.01 0.01 0.01 0.01 0.00 0.00 0.01 0.01 0.01 0.00 0.00 0.00 0.00 0.00 0.00 0.00 0.00 0.00 0.00 0.00 0.00 0.00 0.00 0.00 0.00 0.00 0.00 0.00 0.00 0.00 0.00 0.00 0.00 0.00 0.00 0.00 0.00 0.00 0.00 0.00 0.00 0.00 0.00 0.00
0.00 0.01 0.01 0.01 0.01 0.01 0.01 0.01 0.01 0.01 0.00 0.00 0.00 0.00 0.00 0.00 0.00 0.00 0.00 0.00 0.00 0.00 0.00 0.00 0.00 0.00 0.00 0.00 0.00 0.00 0.00 0.00 0.00 0.00 0.00 0.00 0.00 0.00 0.00 0.00 0.00 0.00 0.00 0.00
0.00 0.01 0.01 0.00 0.00 0.01 0.01 0.01 0.01 0.01 0.01 0.01 0.01 0.00 0.00 0.00 0.00 0.00 0.00 0.00 0.00 0.00 0.00 0.00 0.00 0.00 0.00 0.00 0.00 0.00 0.00 0.00 0.00 0.00 0.00 0.00 0.00 0.00 0.00 0.00 0.00 0.00 0.00 0.00
0.00 0.00 0.00 0.00 0.00 0.00 0.00 0.00 0.00 0.00 0.00 0.00 0.00 0.01 0.01 0.01 0.00 0.00 0.00 0.00 0.00 0.00 0.00 0.00 0.00 0.00 0.00 0.00 0.00 0.00 0.00 0.00 0.00 0.00 0.00 0.00 0.00 0.00 0.00 0.00 0.00 0.00 0.00 0.00
0.00 0.00 0.00 0.00 0.00 0.00 0.00 0.00 0.00 0.00 0.00 0.00 0.00 0.01 0.01 0.01 0.01 0.00 0.00 0.00 0.00 0.00 0.00 0.01 0.01 0.01 0.01 0.01 0.01 0.01 0.01 0.01 0.01 0.01 0.01 0.01 0.01 0.01 0.01 0.00 0.00 0.00 0.00 0.00
0.00 0.00 0.00 0.00 0.00 0.00 0.00 0.00 0.00 0.00 0.00 0.00 0.00 0.01 0.01 0.01 0.01 0.01 0.00 0.00 0.00 0.01 0.01 0.01 0.01 0.01 0.01 0.02 0.02 0.02 0.02 0.02 0.02 0.02 0.02 0.02 0.01 0.01 0.01 0.01 0.01 0.01 0.00 0.00
0.00 0.00 0.00 0.00 0.00 0.00 0.00 0.00 0.00 0.00 0.00 0.00 0.00 0.01 0.01 0.01 0.01 0.00 0.00 0.01 0.00 0.01 0.01 0.01 0.02 0.02 0.02 0.02 0.02 0.03 0.03 0.04 0.04 0.04 0.03 0.03 0.02 0.02 0.01 0.01 0.01 0.01 0.01 0.01
0.00 0.00 0.00 0.00 0.00 0.00 0.00 0.00 0.00 0.00 0.00 0.00 0.00 0.00 0.01 0.01 0.00 0.01 0.01 0.01 0.01 0.01 0.02 0.01 0.01 0.01 0.01 0.01 0.01 0.02 0.02 0.03 0.03 0.03 0.04 0.03 0.03 0.03 0.03 0.02 0.02 0.02 0.02 0.02
0.00 0.00 0.00 0.00 0.00 0.00 0.00 0.00 0.00 0.00 0.00 0.00 0.00 0.00 0.01 0.01 0.01 0.01 0.01 0.01 0.01 0.01 0.01 0.01 0.01 0.01 0.01 0.01 0.01 0.01 0.02 0.02 0.03 0.03 0.03 0.04 0.04 0.03 0.03 0.02 0.02 0.02 0.02 0.02
0.00 0.00 0.00 0.00 0.00 0.00 0.00 0.00 0.00 0.00 0.00 0.00 0.00 0.01 0.01 0.01 0.01 0.01 0.01 0.01 0.01 0.01 0.01 0.01 0.01 0.01 0.01 0.01 0.02 0.02 0.02 0.03 0.04 0.04 0.04 0.04 0.04 0.04 0.03 0.03 0.03 0.03 0.03 0.03
0.00 0.00 0.00 0.00 0.00 0.00 0.00 0.00 0.00 0.00 0.00 0.00 0.00 0.01 0.01 0.01 0.01 0.01 0.01 0.01 0.01 0.01 0.01 0.01 0.01 0.01 0.02 0.02 0.02 0.02 0.03 0.03 0.04 0.04 0.03 0.03 0.03 0.04 0.04 0.04 0.03 0.03 0.02 0.03
0.00 0.00 0.00 0.00 0.00 0.00 0.00 0.00 0.00 0.00 0.00 0.00 0.00 0.00 0.01 0.01 0.01 0.01 0.01 0.01 0.01 0.01 0.01 0.01 0.01 0.01 0.01 0.02 0.02 0.03 0.02 0.02 0.03 0.03 0.02 0.03 0.04 0.04 0.04 0.04 0.03 0.03 0.03 0.03
0.00 0.00 0.00 0.00 0.00 0.00 0.00 0.00 0.00 0.00 0.00 0.00 0.00 0.00 0.01 0.01 0.01 0.01 0.01 0.01 0.01 0.01 0.01 0.01 0.01 0.02 0.02 0.02 0.03 0.03 0.03 0.03 0.03 0.03 0.03 0.04 0.04 0.03 0.03 0.03 0.03 0.02 0.02 0.02
0.00 0.00 0.00 0.00 0.00 0.00 0.00 0.00 0.00 0.00 0.00 0.00 0.00 0.00 0.01 0.01 0.01 0.01 0.02 0.02 0.02 0.02 0.01 0.01 0.02 0.01 0.02 0.02 0.03 0.03 0.03 0.03 0.03 0.03 0.03 0.03 0.03 0.03 0.02 0.02 0.02 0.02 0.02 0.02
0.00 0.00 0.00 0.00 0.00 0.00 0.00 0.00 0.00 0.00 0.00 0.00 0.01 0.01 0.01 0.01 0.01 0.02 0.02 0.02 0.01 0.01 0.01 0.01 0.02 0.02 0.02 0.02 0.03 0.03 0.03 0.03 0.04 0.04 0.04 0.04 0.04 0.03 0.03 0.03 0.02 0.02 0.02 0.02
0.00 0.00 0.00 0.00 0.00 0.00 0.00 0.00 0.00 0.00 0.00 0.00 0.01 0.01 0.01 0.01 0.01 0.01 0.02 0.02 0.01 0.01 0.02 0.02 0.02 0.02 0.02 0.03 0.03 0.03 0.03 0.03 0.03 0.04 0.04 0.04 0.04 0.04 0.03 0.03 0.02 0.02 0.02 0.02
0.00 0.00 0.00 0.00 0.00 0.00 0.00 0.00 0.00 0.00 0.00 0.01 0.01 0.01 0.01 0.01 0.02 0.02 0.02 0.01 0.02 0.02 0.02 0.02 0.02 0.02 0.02 0.02 0.03 0.03 0.03 0.03 0.03 0.04 0.04 0.04 0.04 0.04 0.03 0.03 0.02 0.02 0.02 0.02
0.00 0.00 0.00 0.00 0.00 0.00 0.00 0.00 0.00 0.00 0.00 0.00 0.01 0.01 0.01 0.01 0.01 0.02 0.02 0.02 0.02 0.02 0.02 0.02 0.02 0.02 0.03 0.03 0.03 0.03 0.03 0.03 0.04 0.04 0.04 0.04 0.04 0.03 0.03 0.03 0.02 0.02 0.02 0.02
0.00 0.00 0.00 0.00 0.00 0.00 0.00 0.00 0.00 0.00 0.00 0.00 0.00 0.01 0.01 0.02 0.02 0.01 0.01 0.02 0.02 0.02 0.02 0.02 0.03 0.03 0.03 0.03 0.03 0.03 0.03 0.03 0.04 0.04 0.04 0.04 0.03 0.03 0.02 0.02 0.02 0.02 0.02 0.02
0.00 0.00 0.00 0.00 0.00 0.00 0.00 0.00 0.00 0.00 0.00 0.01 0.00 0.01 0.01 0.01 0.01 0.01 0.02 0.02 0.02 0.02 0.02 0.03 0.03 0.03 0.03 0.03 0.03 0.03 0.03 0.03 0.03 0.03 0.03 0.03 0.02 0.02 0.02 0.02 0.02 0.02 0.02 0.02
0.00 0.00 0.00 0.00 0.00 0.00 0.00 0.00 0.00 0.00 0.01 0.01 0.01 0.01 0.01 0.01 0.01 0.01 0.02 0.02 0.02 0.02 0.02 0.03 0.03 0.03 0.03 0.03 0.03 0.03 0.03 0.03 0.03 0.03 0.03 0.03 0.02 0.02 0.02 0.02 0.02 0.01 0.01 0.01
MSLP
1015.88 1015.97 1016.07 1016.18 1016.32 1016.50 1016.71 1016.96 1017.24 1017.54 1017.85 1018.16 1018.44 1018.67 1018.84 1018.92 1018.93 1018.84 1018.66 1018.40 1018.08 1017.71 1017.33 1016.96 1016.63 1016.36 1016.17 1016.08 1016.09 1016.21 1016.44 1016.75 1017.13 1017.56 1018.01 1018.45 1018.86 1019.20 1019.46 1019.64 1019.73 1019.76 1019.74 1019.71
1016.20 1016.26 1016.32 1016.40 1016.51 1016.66 1016.87 1017.13 1017.45 1017.81 1018.20 1018.59 1018.96 1019.28 1019.51 1019.64 1019.64 1019.52 1019.27 1018.90 1018.45 1017.95 1017.43 1016.92 1016.48 1016.13 1015.88 1015.77 1015.78 1015.93 1016.20 1016.57 1017.01 1017.50 1018.00 1018.47 1018.89 1019.25 1019.51 1019.69 1019.79 1019.82 1019.82 1019.81
1016.53 1016.57 1016.62 1016.69 1016.79 1016.94 1017.15 1017.42 1017.76 1018.15 1018.58 1019.02 1019.44 1019.79 1020.05 1020.19 1020.18 1020.01 1019.69 1019.23 1018.68 1018.06 1017.42 1016.81 1016.27 1015.84 1015.55 1015.41 1015.43 1015.59 1015.90 1016.31 1016.80 1017.34 1017.88 1018.39 1018.85 1019.23 1019.52 1019.72 1019.83 1019.89 1019.92 1019.95
1016.88 1016.93 1016.99 1017.07 1017.18 1017.34 1017.56 1017.83 1018.18 1018.57 1019.00 1019.44 1019.85 1020.20 1020.44 1020.54 1020.49 1020.27 1019.89 1019.36 1018.73 1018.04 1017.32 1016.64 1016.04 1015.55 1015.22 1015.05 1015.06 1015.24 1015.56 1016.00 1016.52 1017.10 1017.68 1018.23 1018.73 1019.14 1019.47 1019.70 1019.86 1019.96 1020.02 1020.08
1017.26 1017.35 1017.44 1017.54 1017.68 1017.86 1018.09 1018.36 1018.69 1019.06 1019.45 1019.84 1020.19 1020.48 1020.66 1020.70 1020.59 1020.32 1019.89 1019.32 1018.64 1017.91 1017.16 1016.44 1015.80 1015.29 1014.93 1014.75 1014.74 1014.91 1015.24 1015.68 1016.23 1016.82 1017.43 1018.02 1018.55 1019.01 1019.37 1019.65 1019.85 1019.98 1020.08 1020.17
1017.68 1017.80 1017.94 1018.09 1018.27 1018.47 1018.71 1018.98 1019.27 1019.59 1019.91 1020.21 1020.47 1020.65 1020.74 1020.70 1020.52 1020.19 1019.72 1019.13 1018.44 1017.71 1016.96 1016.24 1015.60 1015.09 1014.72 1014.52 1014.50 1014.65 1014.95 1015.39 1015.93 1016.53 1017.15 1017.76 1018.32 1018.81 1019.21 1019.53 1019.77 1019.95 1020.08 1020.19
1018.12 1018.29 1018.47 1018.68 1018.90 1019.13 1019.38 1019.63 1019.88 1020.12 1020.35 1020.54 1020.68 1020.74 1020.72 1020.58 1020.32 1019.95 1019.45 1018.86 1018.19 1017.48 1016.76 1016.08 1015.46 1014.96 1014.58 1014.37 1014.33 1014.45 1014.72 1015.13 1015.64 1016.23 1016.84 1017.45 1018.03 1018.54 1018.97 1019.33 1019.60 1019.81 1019.96 1020.10
1018.57 1018.78 1019.02 1019.27 1019.53 1019.79 1020.04 1020.27 1020.47 1020.64 1020.77 1020.84 1020.85 1020.79 1020.64 1020.41 1020.08 1019.67 1019.16 1018.58 1017.94 1017.28 1016.61 1015.97 1015.39 1014.91 1014.54 1014.31 1014.24 1014.32 1014.54 1014.90 1015.36 1015.91 1016.49 1017.09 1017.66 1018.18 1018.63 1019.01 1019.31 1019.54 1019.72 1019.86
1019.02 1019.26 1019.53 1019.82 1020.11 1020.39 1020.64 1020.85 1021.01 1021.11 1021.14 1021.11 1021.00 1020.82 1020.57 1020.26 1019.87 1019.42 1018.91 1018.35 1017.75 1017.14 1016.53 1015.94 1015.40 1014.94 1014.57 1014.32 1014.21 1014.23 1014.39 1014.68 1015.07 1015.55 1016.09 1016.64 1017.19 1017.70 1018.16 1018.55 1018.86 1019.11 1019.31 1019.46
1019.45 1019.71 1020.00 1020.31 1020.62 1020.90 1021.15 1021.34 1021.46 1021.51 1021.47 1021.35 1021.15 1020.88 1020.55 1020.17 1019.73 1019.26 1018.76 1018.22 1017.67 1017.10 1016.54 1016.00 1015.49 1015.04 1014.66 1014.38 1014.21 1014.16 1014.24 1014.44 1014.75 1015.15 1015.61 1016.12 1016.62 1017.11 1017.55 1017.94 1018.26 1018.52 1018.73 1018.91
1019.84 1020.10 1020.39 1020.70 1021.02 1021.31 1021.55 1021.73 1021.83 1021.83 1021.75 1021.57 1021.31 1020.98 1020.60 1020.17 1019.71 1019.23 1018.73 1018.22 1017.70 1017.17 1016.65 1016.13 1015.64 1015.18 1014.78 1014.46 1014.22 1014.09 1014.08 1014.18 1014.39 1014.69 1015.08 1015.50 1015.96 1016.40 1016.82 1017.20 1017.52 1017.79 1018.01 1018.20
1020.19 1020.43 1020.71 1021.01 1021.31 1021.60 1021.84 1022.00 1022.09 1022.08 1021.97 1021.77 1021.48 1021.12 1020.72 1020.27 1019.80 1019.32 1018.83 1018.33 1017.83 1017.33 1016.82 1016.32 1015.82 1015.35 1014.91 1014.53 1014.23 1014.02 1013.90 1013.90 1014.00 1014.20 1014.49 1014.83 1015.21 1015.61 1015.99 1016.34 1016.66 1016.93 1017.17 1017.37
1020.48 1020.69 1020.95 1021.23 1021.52 1021.79 1022.02 1022.18 1022.26 1022.24 1022.13 1021.92 1021.64 1021.28 1020.87 1020.43 1019.96 1019.48 1019.00 1018.51 1018.02 1017.52 1017.02 1016.51 1016.00 1015.50 1015.03 1014.59 1014.22 1013.92 1013.72 1013.61 1013.61 1013.70 1013.89 1014.14 1014.45 1014.78 1015.11 1015.44 1015.74 1016.01 1016.25 1016.47
1020.72 1020.91 1021.13 1021.39 1021.65 1021.90 1022.11 1022.26 1022.34 1022.32 1022.22 1022.03 1021.75 1021.40 1021.01 1020.58 1020.12 1019.65 1019.17 1018.69 1018.20 1017.69 1017.18 1016.66 1016.13 1015.61 1015.09 1014.61 1014.18 1013.81 1013.52 1013.33 1013.23 1013.23 1013.31 1013.48 1013.70 1013.95 1014.23 1014.52 1014.79 1015.05 1015.29 1015.52
1020.92 1021.08 1021.28 1021.50 1021.74 1021.96 1022.14 1022.27 1022.34 1022.32 1022.22 1022.04 1021.78 1021.45 1021.07 1020.65 1020.21 1019.74 1019.26 1018.78 1018.28 1017.77 1017.25 1016.72 1016.17 1015.63 1015.09 1014.58 1014.11 1013.69 1013.34 1013.07 1012.89 1012.80 1012.80 1012.87 1013.00 1013.18 1013.40 1013.63 1013.87 1014.11 1014.35 1014.58
1021.09 1021.24 1021.41 1021.60 1021.80 1021.97 1022.12 1022.22 1022.26 1022.23 1022.12 1021.94 1021.69 1021.37 1021.00 1020.59 1020.15 1019.68 1019.20 1018.71 1018.20 1017.69 1017.16 1016.63 1016.08 1015.54 1015.00 1014.48 1013.99 1013.55 1013.16 1012.84 1012.60 1012.43 1012.35 1012.33 1012.38 1012.48 1012.63 1012.80 1013.00 1013.21 1013.43 1013.65
1021.26 1021.40 1021.54 1021.70 1021.84 1021.97 1022.07 1022.12 1022.12 1022.05 1021.92 1021.72 1021.45 1021.12 1020.75 1020.34 1019.89 1019.42 1018.94 1018.44 1017.93 1017.42 1016.90 1016.37 1015.85 1015.32 1014.80 1014.30 1013.82 1013.38 1012.98 1012.63 1012.34 1012.11 1011.96 1011.86 1011.83 1011.86 1011.93 1012.05 1012.20 1012.37 1012.57 1012.78
1021.43 1021.55 1021.68 1021.79 1021.88 1021.95 1021.98 1021.96 1021.89 1021.77 1021.59 1021.35 1021.05 1020.70 1020.31 1019.88 1019.42 1018.94 1018.45 1017.95 1017.45 1016.95 1016.44 1015.95 1015.45 1014.96 1014.49 1014.02 1013.57 1013.15 1012.76 1012.40 1012.08 1011.82 1011.60 1011.44 1011.34 1011.29 1011.30 1011.35 1011.45 1011.59 1011.76 1011.96
1021.60 1021.72 1021.81 1021.88 1021.91 1021.90 1021.85 1021.75 1021.60 1021.40 1021.15 1020.85 1020.51 1020.12 1019.69 1019.24 1018.76 1018.27 1017.77 1017.27 1016.78 1016.29 1015.82 1015.36 1014.91 1014.48 1014.05 1013.64 1013.24 1012.86 1012.48 1012.13 1011.81 1011.51 1011.25 1011.04 1010.88 1010.77 1010.72 1010.72 1010.77 1010.88 1011.03 1011.21
1021.78 1021.88 1021.94 1021.95 1021.91 1021.82 1021.68 1021.49 1021.25 1020.96 1020.64 1020.26 1019.86 1019.42 1018.95 1018.46 1017.96 1017.46 1016.95 1016.46 1015.98 1015.52 1015.08 1014.66 1014.26 1013.88 1013.52 1013.17 1012.82 1012.48 1012.14 1011.81 1011.48 1011.17 1010.89 1010.64 1010.43 1010.27 1010.17 1010.13 1010.15 1010.24 1010.37 1010.55
1021.93 1022.01 1022.03 1021.98 1021.88 1021.70 1021.47 1021.19 1020.86 1020.48 1020.07 1019.62 1019.15 1018.66 1018.15 1017.63 1017.11 1016.59 1016.08 1015.59 1015.12 1014.68 1014.27 1013.90 1013.55 1013.23 1012.92 1012.62 1012.33 1012.03 1011.73 1011.42 1011.11 1010.80 1010.50 1010.23 1010.00 1009.81 1009.68 1009.61 1009.62 1009.68 1009.81 1009.99
1022.05 1022.10 1022.07 1021.96 1021.78 1021.53 1021.22 1020.85 1020.44 1019.98 1019.49 1018.99 1018.46 1017.92 1017.37 1016.82 1016.27 1015.73 1015.22 1014.73 1014.27 1013.85 1013.47 1013.12 1012.82 1012.54 1012.28 1012.03 1011.79 1011.54 1011.27 1011.00 1010.71 1010.41 1010.12 1009.84 1009.60 1009.40 1009.26 1009.19 1009.18 1009.24 1009.37 1009.56
1022.11 1022.11 1022.03 1021.87 1021.63 1021.31 1020.93 1020.49 1020.01 1019.50 1018.95 1018.39 1017.82 1017.24 1016.66 1016.08 1015.52 1014.97 1014.44 1013.95 1013.49 1013.08 1012.71 1012.39 1012.11 1011.86 1011.64 1011.44 1011.23 1011.02 1010.80 1010.56 1010.30 1010.04 1009.77 1009.51 1009.28 1009.09 1008.95 1008.88 1008.88 1008.94 1009.08 1009.26
1022.08 1022.04 1021.91 1021.70 1021.41 1021.04 1020.61 1020.13 1019.61 1019.05 1018.48 1017.88 1017.28 1016.68 1016.08 1015.48 1014.89 1014.32 1013.78 1013.28 1012.81 1012.39 1012.03 1011.71 1011.45 1011.22 1011.03 1010.86 1010.69 1010.53 1010.35 1010.16 1009.95 1009.72 1009.50 1009.27 1009.07 1008.91 1008.79 1008.73 1008.73 1008.80 1008.92 1009.10
1021.95 1021.87 1021.70 1021.45 1021.13 1020.73 1020.28 1019.78 1019.24 1018.67 1018.08 1017.48 1016.87 1016.25 1015.63 1015.02 1014.41 1013.82 1013.26 1012.73 1012.24 1011.81 1011.44 1011.12 1010.85 1010.64 1010.47 1010.33 1010.21 1010.09 1009.97 1009.83 1009.68 1009.52 1009.34 1009.17 1009.01 1008.88 1008.78 1008.73 1008.74 1008.80 1008.91 1009.07
1021.72 1021.60 1021.40 1021.13 1020.80 1020.40 1019.95 1019.45 1018.92 1018.37 1017.79 1017.19 1016.58 1015.96 1015.33 1014.70 1014.07 1013.45 1012.86 1012.30 1011.79 1011.33 1010.93 1010.60 1010.34 1010.13 1009.98 1009.88 1009.80 1009.73 1009.67 1009.60 1009.52 1009.43 1009.32 1009.20 1009.09 1009.00 1008.92 1008.88 1008.88 1008.92 1009.01 1009.13
1021.39 1021.24 1021.04 1020.77 1020.44 1020.06 1019.63 1019.17 1018.67 1018.14 1017.59 1017.01 1016.41 1015.79 1015.16 1014.51 1013.85 1013.21 1012.58 1011.98 1011.43 1010.94 1010.52 1010.17 1009.90 1009.70 1009.57 1009.50 1009.47 1009.46 1009.47 1009.48 1009.47 1009.45 1009.41 1009.36 1009.29 1009.23 1009.17 1009.13 1009.11 1009.12 1009.16 1009.23
Thickness
5518 5523 5524 5527 5528 5528 5524 5522 5519 5525 5526 5528 5529 5530 5530 5531 5533 5534 5534 5535 5536 5537 5538 5540 5542 5544 5546 5547 5547 5546 5544 5542 5541 5538 5536 5534 5531 5529 5527 5525 5523 5522 5520 5518
5511 5520 5522 5521 5523 5524 5524 5523 5522 5522 5519 5521 5520 5519 5518 5517 5519 5520 5521 5524 5525 5527 5529 5531 5533 5536 5538 5538 5538 5538 5537 5535 5532 5529 5526 5523 5521 5518 5515 5513 5512 5511 5509 5507
5497 5510 5514 5505 5512 5517 5517 5515 5518 5516 5511 5510 5509 5509 5506 5503 5503 5505 5507 5511 5513 5516 5518 5522 5525 5528 5530 5532 5531 5530 5528 5526 5523 5520 5516 5513 5510 5507 5505 5503 5501 5500 5499 5497
5487 5500 5491 5503 5509 5510 5501 5496 5499 5498 5497 5497 5498 5498 5495 5492 5492 5493 5496 5499 5502 5505 5509 5513 5517 5520 5523 5524 5523 5522 5520 5517 5514 5511 5507 5503 5500 5497 5495 5493 5491 5490 5488 5486
5479 5482 5490 5500 5502 5500 5497 5486 5483 5485 5483 5484 5487 5488 5484 5484 5483 5483 5484 5487 5490 5494 5498 5502 5506 5510 5513 5514 5513 5512 5511 5509 5506 5503 5499 5495 5491 5488 5486 5484 5481 5479 5477 5475
5478 5482 5485 5493 5495 5494 5492 5479 5474 5473 5471 5471 5475 5473 5474 5473 5472 5473 5475 5477 5480 5484 5488 5492 5496 5499 5501 5503 5502 5503 5503 5501 5498 5495 5491 5487 5484 5480 5477 5474 5472 5469 5467 5465
5473 5475 5479 5484 5484 5489 5476 5474 5464 5462 5460 5459 5457 5457 5459 5460 5461 5462 5464 5466 5470 5473 5476 5480 5484 5487 5489 5491 5492 5494 5493 5491 5488 5486 5483 5479 5475 5472 5468 5465 5462 5459 5457 5454
5467 5468 5471 5476 5475 5469 5464 5457 5454 5451 5449 5447 5446 5446 5448 5449 5450 5451 5453 5455 5458 5461 5465 5468 5472 5474 5477 5479 5481 5482 5482 5481 5479 5476 5474 5471 5466 5463 5460 5457 5454 5451 5448 5446
5468 5468 5464 5462 5458 5453 5450 5446 5444 5440 5438 5436 5435 5434 5436 5437 5438 5439 5441 5443 5446 5448 5453 5456 5459 5462 5465 5468 5470 5470 5470 5470 5469 5467 5464 5462 5459 5456 5452 5450 5448 5445 5442 5440
5461 5458 5453 5447 5443 5441 5439 5436 5432 5429 5426 5424 5423 5423 5424 5425 5427 5428 5430 5431 5434 5436 5440 5445 5448 5450 5453 5457 5458 5459 5460 5459 5458 5457 5455 5453 5451 5449 5447 5445 5443 5440 5438 5436
5454 5449 5442 5440 5435 5431 5429 5425 5421 5418 5415 5414 5413 5413 5413 5414 5415 5417 5419 5420 5421 5423 5427 5432 5435 5439 5442 5445 5447 5448 5449 5449 5449 5448 5448 5446 5444 5444 5442 5441 5440 5438 5436 5434
5449 5444 5436 5431 5428 5424 5420 5416 5412 5408 5406 5404 5403 5402 5402 5402 5403 5404 5405 5407 5408 5410 5413 5418 5422 5427 5430 5433 5436 5439 5440 5440 5440 5440 5440 5439 5437 5436 5436 5435 5435 5434 5433 5430
5441 5437 5430 5426 5421 5417 5412 5408 5404 5399 5396 5393 5392 5390 5389 5389 5390 5390 5391 5392 5394 5396 5400 5405 5409 5414 5419 5422 5426 5429 5431 5433 5433 5433 5433 5432 5431 5431 5430 5430 5430 5429 5429 5427
5434 5429 5424 5419 5413 5408 5403 5399 5395 5391 5387 5384 5381 5379 5378 5376 5376 5375 5376 5377 5380 5383 5387 5391 5396 5401 5406 5410 5414 5418 5421 5424 5425 5426 5426 5426 5426 5425 5425 5425 5424 5424 5425 5424
5426 5422 5415 5410 5404 5399 5394 5388 5384 5380 5376 5374 5370 5367 5365 5363 5362 5362 5362 5363 5366 5370 5374 5378 5382 5388 5392 5396 5401 5405 5410 5413 5416 5418 5419 5420 5420 5419 5419 5419 5420 5420 5418 5419
5418 5413 5407 5400 5394 5389 5383 5377 5372 5368 5365 5362 5359 5356 5353 5350 5348 5348 5349 5350 5353 5357 5361 5364 5369 5373 5377 5381 5386 5392 5398 5402 5406 5409 5411 5412 5413 5414 5414 5415 5415 5415 5415 5415
5410 5403 5397 5390 5384 5379 5372 5367 5361 5358 5354 5350 5347 5344 5340 5337 5336 5336 5337 5338 5339 5343 5346 5350 5355 5359 5363 5368 5373 5379 5385 5390 5395 5399 5402 5405 5406 5408 5410 5410 5411 5412 5413 5412
5405 5398 5390 5382 5375 5368 5363 5358 5352 5346 5342 5338 5335 5331 5328 5325 5324 5324 5325 5325 5327 5330 5334 5337 5341 5345 5350 5355 5360 5366 5372 5378 5383 5388 5392 5396 5399 5402 5404 5405 5407 5407 5408 5407
5396 5389 5381 5374 5366 5358 5352 5347 5341 5336 5331 5326 5322 5318 5316 5313 5311 5311 5311 5311 5313 5317 5322 5324 5328 5332 5337 5342 5348 5354 5360 5366 5371 5376 5381 5386 5390 5394 5397 5399 5401 5402 5402 5402
5387 5379 5371 5364 5357 5348 5341 5336 5330 5324 5319 5314 5310 5307 5304 5302 5299 5298 5298 5299 5301 5303 5307 5310 5314 5318 5324 5330 5336 5342 5349 5355 5360 5365 5370 5375 5380 5385 5389 5391 5393 5395 5396 5396
5376 5369 5362 5354 5346 5339 5331 5324 5318 5313 5309 5304 5299 5296 5294 5292 5289 5287 5286 5290 5293 5293 5294 5298 5302 5306 5311 5317 5324 5330 5337 5343 5349 5354 5359 5364 5370 5375 5379 5383 5385 5387 5389 5389
5367 5359 5351 5343 5336 5329 5322 5314 5307 5303 5299 5295 5291 5287 5285 5283 5281 5280 5279 5279 5282 5283 5285 5287 5290 5294 5300 5307 5313 5319 5325 5332 5338 5344 5350 5355 5360 5365 5370 5373 5376 5378 5380 5381
5357 5349 5341 5333 5326 5319 5312 5305 5298 5293 5289 5286 5282 5279 5277 5275 5273 5271 5274 5274 5273 5274 5276 5278 5281 5286 5291 5296 5302 5307 5313 5320 5327 5333 5339 5345 5350 5355 5359 5363 5366 5369 5371 5372
5347 5339 5332 5324 5315 5307 5302 5299 5292 5287 5282 5278 5275 5272 5269 5268 5267 5265 5264 5266 5266 5268 5268 5270 5274 5277 5282 5286 5291 5297 5303 5309 5316 5322 5328 5334 5339 5343 5348 5352 5355 5358 5361 5362
5338 5329 5321 5313 5305 5300 5295 5289 5284 5279 5275 5272 5269 5266 5262 5260 5259 5260 5258 5258 5259 5261 5262 5264 5267 5270 5273 5276 5281 5287 5293 5300 5306 5312 5318 5323 5328 5333 5337 5341 5345 5348 5350 5352
5328 5320 5312 5304 5296 5290 5284 5278 5274 5270 5267 5266 5264 5261 5257 5254 5252 5252 5252 5252 5252 5254 5256 5257 5259 5262 5265 5269 5273 5278 5284 5290 5296 5302 5307 5312 5317 5322 5327 5331 5335 5338 5340 5343
5318 5310 5302 5295 5288 5281 5274 5268 5264 5261 5258 5256 5256 5255 5251 5249 5247 5247 5247 5247 5248 5249 5250 5252 5254 5256 5259 5263 5267 5271 5276 5281 5287 5292 5297 5302 5307 5311 5316 5320 5324 5328 5331 5333